{"data":{"norad_id":64205,"epoch":"2026-09-20T11:09:46.362816Z","epoch_age_seconds":143357,"freshness":"FRESH","line1":"1 64205U 25117C   26263.46511994  .00021845  00000+0  65557-3 0  9991","line2":"2 64205  53.1588 211.5629 0001377  81.4545 278.6614 15.34410747 74393","mean_motion":15.34410747,"eccentricity":0.0001377,"inclination_deg":53.1588,"raan_deg":211.5629,"arg_perigee_deg":81.4545,"mean_anomaly_deg":278.6614,"bstar":0.00065557,"rev_number":7439,"period_min":93.847100772424,"perigee_km":461.72931874207,"apogee_km":463.61327734736,"semimajor_km":6840.8082980447,"source":"CELESTRAK","updated_at":"2026-09-21T09:00:35.270229Z"}}